Voltar ao catálogo

NATO 3C

AtivoMilitarGEO
NORAD 11115·PAYLOAD· XX

Lançado Nov 19, 1978 de Cape Canaveral Space Force Station

Loading…

TLE

AtualizadoSource: Space-Track

Época: Sep 14, 2026, 04:30 UTC

1 11115U 78106A   26257.18769420 -.00000106  00000-0  00000-0 0  9998
2 11115   8.9810 314.9766 0004998 319.2060  78.6581  0.98481842656099

Acompanhe NATO 3C em tempo real com AllMySat

Download on the App Store